EW1526 Weather Reports


Display with metric or nautical units.
time (UTC)temp
F
wind
direction
speed
MPH
gust
MPH
rain 1hr
in
rain 24hr
in
rain mn
in
humidity
%
barometer
mb
20200410091608 31 219 6.0 18.0 0.00 1.64 0.00 78 986.6
20200410091048 31 229 5.0 12.0 0.00 1.64 0.00 78 986.7
20200410090546 32 190 6.0 18.0 0.00 1.64 0.00 78 986.6
20200410090146 32 279 6.0 18.0 0.00 1.64 0.00 78 986.7
20200410085546 32 317 6.0 13.0 0.00 1.64 0.00 77 986.7
20200410085038 32 233 6.0 13.0 0.00 1.64 0.00 77 986.7
20200410084607 32 192 6.0 14.0 0.00 1.64 0.00 78 986.7
20200410084039 32 53 5.0 14.0 0.00 1.64 0.00 77 986.8
20200410083544 32 291 5.0 13.0 0.00 1.64 0.00 77 986.9
20200410083137 32 257 3.0 13.0 0.00 1.64 0.00 77 986.9
20200410082541 32 238 5.0 12.0 0.00 1.64 0.00 77 986.8
20200410082040 32 166 4.0 15.0 0.00 1.64 0.00 77 986.8
20200410081624 32 232 5.0 16.0 0.00 1.64 0.00 77 986.8
20200410081042 32 277 5.0 16.0 0.00 1.64 0.00 76 986.9
20200410080539 32 217 6.0 14.0 0.00 1.64 0.00 77 986.8
20200410080119 32 78 4.0 15.0 0.00 1.64 0.00 77 986.8
20200410075536 32 294 7.0 15.0 0.00 1.64 0.00 77 986.7
20200410075039 32 241 4.0 13.0 0.00 1.64 0.00 78 986.7
20200410074701 32 235 3.0 13.0 0.00 1.64 0.00 78 986.8
20200410074039 32 292 5.0 13.0 0.00 1.64 0.00 78 986.8
20200410073539 32 315 6.0 12.0 0.00 1.64 0.00 77 986.8
20200410073125 32 283 5.0 13.0 0.00 1.64 0.00 78 986.9
20200410072542 32 298 4.0 13.0 0.00 1.64 0.00 79 987.0
20200410072039 32 96 6.0 12.0 0.00 1.64 0.00 78 987.0
20200410071540 32 323 3.0 10.0 0.00 1.64 0.00 78 987.2
20200410071040 32 211 5.0 13.0 0.00 1.64 0.00 78 987.0
20200410070539 32 221 5.0 13.0 0.00 1.64 0.00 78 987.0
20200410070056 32 216 3.0 9.0 0.00 1.64 0.00 79 987.2
20200410065543 32 316 3.0 12.0 0.00 1.64 0.00 80 987.3
20200410065040 32 261 3.0 12.0 0.00 1.64 0.00 79 987.3
20200410064619 32 285 3.0 16.0 0.00 1.64 0.00 79 987.3
20200410064039 33 219 5.0 16.0 0.00 1.64 0.00 78 987.3
20200410063542 33 152 4.0 15.0 0.00 1.64 0.00 78 987.4
20200410063133 33 278 5.0 14.0 0.00 1.64 0.00 79 987.4
20200410062552 33 76 5.0 14.0 0.00 1.64 0.00 80 987.4
20200410062038 33 322 5.0 12.0 0.00 1.64 0.00 80 987.6
20200410061625 32 286 5.0 13.0 0.00 1.64 0.00 80 987.7
20200410061059 32 265 5.0 13.0 0.00 1.64 0.00 81 987.8
20200410060538 32 200 4.0 12.0 0.00 1.64 0.00 81 987.9
20200410060117 32 223 5.0 12.0 0.00 1.64 0.00 81 987.9
20200410055543 32 229 4.0 12.0 0.00 1.64 0.00 82 988.0
20200410055045 32 311 5.0 17.0 0.00 1.64 0.00 83 988.0
20200410054646 32 257 4.0 17.0 0.00 1.64 0.00 83 988.0
20200410054040 32 306 4.0 11.0 0.00 1.64 0.00 84 988.0
20200410053543 32 318 4.0 11.0 0.00 1.64 0.00 84 988.0
20200410053057 32 252 3.0 10.0 0.00 1.64 0.00 85 988.1
20200410052602 32 194 3.0 10.0 0.00 1.64 0.00 85 988.2
20200410052039 32 231 4.0 10.0 0.00 1.64 0.00 85 988.2
20200410051616 32 305 4.0 10.0 0.00 1.64 0.00 85 988.3
20200410051036 32 192 4.0 10.0 0.00 1.64 0.00 86 988.4
20200410050547 32 296 2.0 10.0 0.00 1.64 0.00 87 988.4
20200410050127 32 242 2.0 10.0 0.00 1.64 0.00 87 988.4
20200410045541 32 258 4.0 10.0 0.00 1.64 0.00 87 988.5
20200410045037 32 267 4.0 10.0 0.00 1.64 0.00 87 988.5
20200410044708 32 245 3.0 9.0 0.00 1.64 0.00 87 988.6
20200410044058 32 244 4.0 12.0 0.00 1.64 0.00 86 988.6
20200410043540 32 284 5.0 12.0 0.00 1.64 0.00 86 988.6
20200410043124 32 262 6.0 13.0 0.00 1.64 0.00 87 988.6
20200410042543 32 290 5.0 14.0 0.00 1.64 0.00 88 988.6
20200410042038 33 265 5.0 14.0 0.00 1.64 0.00 88 988.7
20200410041632 33 264 5.0 14.0 0.00 1.64 0.00 88 988.7
20200410041050 33 342 6.0 15.0 0.00 1.64 0.00 88 988.7
20200410040647 33 285 5.0 18.0 0.00 1.64 0.00 89 988.7
20200410040104 33 229 5.0 18.0 0.00 1.64 0.00 89 988.6
20200410035543 33 263 5.0 12.0 0.00 1.64 1.64 90 988.8
20200410035039 32 309 6.0 16.0 0.00 1.64 1.64 91 988.8
20200410034619 33 227 3.0 16.0 0.00 1.64 1.64 92 988.9
20200410034052 33 261 6.0 13.0 0.00 1.64 1.64 92 989.0
20200410033538 33 281 5.0 11.0 0.00 1.64 1.64 93 989.0
20200410033108 33 217 5.0 11.0 0.00 1.64 1.64 94 988.9
20200410032600 33 258 3.0 12.0 0.00 1.64 1.64 95 989.0
20200410032044 33 225 4.0 12.0 0.00 1.64 1.64 95 988.9
20200410031636 32 345 4.0 10.0 0.01 1.64 1.64 96 989.0
20200410031108 32 265 3.0 10.0 0.01 1.64 1.64 96 989.1
20200410030544 32 89 3.0 9.0 0.01 1.64 1.64 96 989.1
20200410030137 32 269 4.0 12.0 0.01 1.64 1.64 96 989.1
20200410025541 32 329 3.0 12.0 0.01 1.64 1.64 97 989.1
20200410025046 33 288 4.0 12.0 0.01 1.64 1.64 97 989.2
20200410024636 33 263 4.0 11.0 0.01 1.64 1.64 97 989.2
20200410024044 33 313 5.0 11.0 0.01 1.64 1.64 97 989.2
20200410023539 33 259 3.0 10.0 0.01 1.64 1.64 97 989.4
20200410023147 33 267 3.0 10.0 0.01 1.64 1.64 97 989.3
20200410022555 33 290 4.0 11.0 0.01 1.64 1.64 97 989.4
20200410022058 33 250 3.0 11.0 0.01 1.64 1.64 97 989.4
20200410021621 33 28 4.0 11.0 0.00 1.63 1.63 97 989.4
20200410021039 33 282 3.0 10.0 0.00 1.63 1.63 97 989.4
20200410020536 33 323 3.0 12.0 0.00 1.63 1.63 97 989.4
20200410020108 32 66 5.0 12.0 0.00 1.63 1.63 97 989.5
20200410015616 32 331 4.0 8.0 0.00 1.63 1.63 97 989.6
20200410015037 32 301 3.0 8.0 0.00 1.63 1.63 97 989.6
20200410014613 32 250 2.0 10.0 0.00 1.63 1.63 97 989.6
20200410014051 32 310 3.0 10.0 0.00 1.63 1.63 97 989.7
20200410013537 33 238 2.0 10.0 0.00 1.63 1.63 97 989.8
20200410013121 32 253 4.0 11.0 0.00 1.63 1.63 96 989.8
20200410012540 32 238 3.0 11.0 0.00 1.63 1.63 96 989.8
20200410012038 33 308 3.0 10.0 0.01 1.63 1.63 96 989.8
20200410011618 33 199 3.0 10.0 0.01 1.63 1.63 96 989.9
20200410011039 33 233 3.0 10.0 0.01 1.63 1.63 96 989.9
20200410010557 33 239 3.0 8.0 0.01 1.63 1.63 96 989.8
20200410010147 33 324 3.0 10.0 0.01 1.63 1.63 96 989.8
20200410005543 33 269 4.0 10.0 0.01 1.63 1.63 96 989.8
20200410005036 33 334 4.0 10.0 0.01 1.63 1.63 96 989.8
20200410004558 33 284 3.0 10.0 0.01 1.63 1.63 96 989.9
20200410004038 33 257 4.0 11.0 0.01 1.63 1.63 96 989.7
20200410003537 33 57 5.0 11.0 0.02 1.63 1.63 96 989.8
20200410003123 33 279 4.0 11.0 0.02 1.63 1.63 96 989.7
20200410002537 32 211 5.0 11.0 0.02 1.63 1.63 96 989.8
20200410002117 32 309 5.0 14.0 0.01 1.62 1.62 96 989.7
20200410001541 32 311 7.0 15.0 0.02 1.62 1.62 96 989.7
20200410001036 32 240 8.0 15.0 0.02 1.62 1.62 96 989.8
20200410000541 32 288 7.0 19.0 0.02 1.62 1.62 96 989.7
20200410000103 33 281 10.0 19.0 0.02 1.62 1.62 96 989.6
20200409235555 33 319 7.0 17.0 0.02 1.62 1.62 96 989.5
20200409235039 33 321 5.0 13.0 0.02 1.62 1.62 95 989.4
20200409234537 33 253 5.0 16.0 0.03 1.62 1.62 95 989.3
20200409234056 34 280 6.0 16.0 0.03 1.62 1.62 95 989.2
20200409233537 34 323 6.0 13.0 0.03 1.61 1.61 95 989.0
20200409233107 34 329 6.0 16.0 0.03 1.61 1.61 95 988.9
20200409232542 34 281 8.0 16.0 0.05 1.61 1.61 95 988.8
20200409232043 35 36 6.0 18.0 0.07 1.61 1.61 94 988.6
20200409231631 35 308 6.0 20.0 0.07 1.60 1.60 94 988.6
20200409231040 36 300 9.0 24.0 0.08 1.60 1.60 93 988.4
20200409230539 36 254 12.0 24.0 0.09 1.60 1.60 92 988.3
20200409230107 36 15 9.0 19.0 0.10 1.60 1.60 92 988.1
20200409225541 37 270 7.0 16.0 0.11 1.60 1.60 93 988.1
20200409225041 37 273 8.0 17.0 0.12 1.60 1.60 94 988.0
20200409224553 37 243 7.0 19.0 0.12 1.59 1.59 94 988.0
20200409224050 37 234 9.0 19.0 0.13 1.59 1.59 95 987.7
20200409223545 37 256 7.0 14.0 0.14 1.58 1.58 97 987.7
20200409223117 37 309 4.0 10.0 0.15 1.58 1.58 97 987.7
20200409222541 37 279 1.0 3.0 0.13 1.56 1.56 97 987.6
20200409222040 37 314 1.0 3.0 0.12 1.54 1.54 97 987.4
20200409221559 37 281 1.0 3.0 0.12 1.53 1.53 96 987.3
20200409221040 38 355 0.0 3.0 0.11 1.52 1.52 96 987.4
20200409220547 38 32 0.0 3.0 0.10 1.50 1.50 96 987.4
20200409220124 38 252 0.0 1.0 0.10 1.50 1.50 96 987.3
20200409215555 38 0 0.0 1.0 0.10 1.49 1.49 96 987.2
20200409215043 38 0 0.0 2.0 0.09 1.48 1.48 96 987.2
20200409214622 38 0 0.0 2.0 0.08 1.47 1.47 96 987.3
20200409214038 38 16 0.0 4.0 0.06 1.45 1.45 96 987.4
20200409213606 38 65 2.0 4.0 0.06 1.44 1.44 96 987.4
20200409213157 38 83 0.0 2.0 0.05 1.43 1.43 96 987.2
20200409212540 38 67 1.0 4.0 0.05 1.43 1.43 96 986.9
20200409212047 38 52 2.0 4.0 0.05 1.42 1.42 96 986.7
20200409211612 38 51 0.0 2.0 0.05 1.41 1.41 96 986.7
20200409211038 38 82 0.0 2.0 0.06 1.41 1.41 96 986.9
20200409210545 38 114 0.0 2.0 0.06 1.40 1.40 96 987.3
20200409210110 38 0 1.0 2.0 0.07 1.40 1.40 96 987.5
20200409205541 39 101 0.0 1.0 0.08 1.39 1.39 96 987.6
20200409205048 39 0 0.0 0.0 0.09 1.39 1.39 96 987.6
20200409204653 38 0 0.0 1.0 0.10 1.39 1.39 96 987.1
20200409204039 38 0 0.0 2.0 0.11 1.39 1.39 96 986.5
20200409203546 38 115 0.0 2.0 0.11 1.38 1.38 96 987.1
20200409203121 38 74 0.0 2.0 0.14 1.38 1.38 96 987.7
20200409202548 38 0 0.0 1.0 0.17 1.38 1.38 96 988.1
20200409202043 38 0 0.0 1.0 0.20 1.37 1.37 95 987.9
20200409201608 38 0 0.0 0.0 0.22 1.36 1.36 95 988.1
20200409201045 38 0 0.0 0.0 0.25 1.35 1.35 95 988.2
20200409200540 38 0 0.0 0.0 0.27 1.34 1.34 95 988.4
20200409200118 38 0 0.0 0.0 0.28 1.32 1.32 95 988.5
20200409195540 38 0 0.0 0.0 0.31 1.31 1.31 94 988.6
20200409195100 38 0 0.0 1.0 0.34 1.30 1.30 94 988.6
20200409194636 38 0 0.0 1.0 0.36 1.29 1.29 93 988.6
20200409194040 38 0 0.0 2.0 0.39 1.28 1.28 93 988.6
20200409193541 38 0 0.0 6.0 0.39 1.26 1.26 93 988.8
20200409193120 38 0 0.0 6.0 0.40 1.24 1.24 92 988.9
20200409192544 39 229 1.0 5.0 0.40 1.21 1.21 92 989.0
20200409192048 39 277 2.0 5.0 0.39 1.16 1.16 92 989.3
20200409191551 39 224 0.0 4.0 0.38 1.13 1.13 93 989.4
20200409191037 40 236 0.0 4.0 0.39 1.10 1.10 93 989.4
20200409190538 40 251 1.0 6.0 0.40 1.07 1.07 93 989.4
20200409190058 40 227 1.0 6.0 0.38 1.03 1.03 93 989.6
20200409185556 40 254 1.0 6.0 0.37 1.00 1.00 93 989.4
20200409185050 41 226 1.0 4.0 0.35 0.96 0.96 94 989.4
20200409184557 41 0 0.0 6.0 0.32 0.92 0.92 94 989.5
20200409184043 41 106 0.0 6.0 0.31 0.89 0.89 94 989.4
20200409183604 41 226 2.0 11.0 0.31 0.86 0.86 94 989.5
20200409183132 41 221 4.0 11.0 0.36 0.84 0.84 95 989.7
20200409182556 41 74 2.0 11.0 0.38 0.81 0.81 96 989.7
20200409182052 41 290 0.0 3.0 0.37 0.78 0.78 97 990.0
20200409181600 41 235 0.0 3.0 0.35 0.74 0.74 97 989.9
20200409181037 41 0 0.0 0.0 0.32 0.71 0.71 97 990.1
20200409180540 41 0 0.0 0.0 0.29 0.67 0.67 97 990.2
20200409180128 41 0 0.0 4.0 0.28 0.65 0.65 97 990.2
20200409175550 41 0 0.0 4.0 0.28 0.63 0.63 97 990.3
20200409175038 41 0 0.0 1.0 0.29 0.61 0.61 97 990.3
20200409174653 40 0 0.0 3.0 0.30 0.58 0.58 97 990.2
20200409174043 40 0 1.0 3.0 0.30 0.58 0.58 98 990.3
20200409173554 40 217 0.0 3.0 0.27 0.55 0.55 98 990.3
20200409173048 40 333 1.0 6.0 0.20 0.48 0.48 98 989.9
20200409172538 40 223 1.0 7.0 0.15 0.42 0.42 97 989.7
20200409172041 40 105 1.0 7.0 0.14 0.40 0.40 97 989.4
20200409171651 40 109 1.0 6.0 0.14 0.39 0.39 97 989.5
20200409171043 40 261 0.0 6.0 0.15 0.39 0.39 97 989.5
20200409170537 40 0 0.0 4.0 0.15 0.38 0.38 97 990.1
20200409170103 39 94 0.0 6.0 0.15 0.36 0.36 97 990.6
20200409165538 39 267 1.0 6.0 0.14 0.35 0.35 97 991.0
20200409165041 39 281 0.0 6.0 0.11 0.31 0.31 97 991.1
20200409164544 39 336 2.0 6.0 0.09 0.29 0.29 97 990.8
20200409164040 39 301 1.0 6.0 0.10 0.28 0.28 97 990.7
20200409163540 39 112 2.0 6.0 0.12 0.28 0.28 97 990.7
20200409163119 39 271 1.0 6.0 0.13 0.28 0.28 97 991.0
20200409162538 38 121 1.0 10.0 0.12 0.27 0.27 97 991.1
20200409162039 38 254 2.0 10.0 0.11 0.26 0.26 97 991.6
20200409161552 38 234 2.0 8.0 0.10 0.25 0.25 97 991.7
20200409161041 38 242 2.0 10.0 0.10 0.24 0.24 97 991.6
20200409160558 38 254 2.0 10.0 0.11 0.23 0.23 96 991.6
20200409160055 37 302 2.0 8.0 0.10 0.21 0.21 96 991.7
20200409155543 37 232 3.0 8.0 0.11 0.21 0.21 96 991.9
20200409155100 37 279 3.0 11.0 0.11 0.20 0.20 96 991.9
20200409154610 37 270 2.0 11.0 0.13 0.20 0.20 95 992.0
20200409154041 37 250 2.0 8.0 0.12 0.18 0.18 95 992.4
20200409153543 37 238 3.0 8.0 0.11 0.16 0.16 95 992.5
20200409153109 38 256 2.0 8.0 0.11 0.15 0.15 95 992.6
20200409152543 38 234 1.0 7.0 0.12 0.15 0.15 94 993.0
20200409152040 38 57 2.0 7.0 0.13 0.15 0.15 94 993.4
20200409151554 38 25 2.0 8.0 0.12 0.14 0.14 94 993.7
20200409151040 39 257 2.0 8.0 0.13 0.14 0.14 94 994.0
20200409150559 39 235 1.0 5.0 0.12 0.12 0.12 93 994.2
20200409150137 40 148 1.0 12.0 0.11 0.11 0.11 94 994.3
20200409145542 40 309 2.0 12.0 0.10 0.10 0.10 94 994.3
20200409145041 40 115 2.0 10.0 0.09 0.09 0.09 94 994.5
20200409144642 40 321 2.0 8.0 0.07 0.07 0.07 95 994.8
20200409144039 40 102 2.0 9.0 0.06 0.06 0.06 95 994.9
20200409143544 39 266 1.0 9.0 0.05 0.05 0.05 94 994.7
20200409143112 39 243 2.0 7.0 0.04 0.04 0.04 93 994.6
20200409142557 39 259 2.0 8.0 0.03 0.03 0.03 92 994.8
20200409142041 39 298 2.0 8.0 0.02 0.02 0.02 91 995.1
20200409141652 39 246 2.0 16.0 0.02 0.02 0.02 90 995.4
20200409141040 40 245 3.0 16.0 0.01 0.01 0.01 88 995.8
20200409140551 40 254 1.0 5.0 0.00 0.00 0.00 87 996.3
20200409140118 41 342 1.0 6.0 0.00 0.00 0.00 86 996.6
20200409135540 41 112 1.0 6.0 0.00 0.00 0.00 83 996.8
20200409135042 42 218 1.0 6.0 0.00 0.00 0.00 81 996.9
20200409134610 42 190 1.0 8.0 0.00 0.00 0.00 81 997.0
20200409134040 42 79 2.0 8.0 0.00 0.00 0.00 80 997.4
20200409133600 42 95 1.0 6.0 0.00 0.00 0.00 78 997.5
20200409133109 43 84 0.0 2.0 0.00 0.00 0.00 81 997.6
20200409132539 43 74 0.0 2.0 0.00 0.00 0.00 84 997.9
20200409132038 43 268 0.0 9.0 0.00 0.00 0.00 84 997.9
20200409131611 42 0 2.0 9.0 0.00 0.00 0.00 82 997.8
20200409131043 42 172 1.0 9.0 0.00 0.00 0.00 79 997.8
20200409130540 42 0 1.0 9.0 0.00 0.00 0.00 82 997.9
20200409130151 41 224 0.0 2.0 0.00 0.00 0.00 83 998.0
20200409125540 40 68 0.0 4.0 0.00 0.00 0.00 84 997.9
20200409125039 39 96 1.0 8.0 0.00 0.00 0.00 82 998.0
20200409124648 39 46 3.0 9.0 0.00 0.00 0.00 81 998.2
20200409124038 39 69 3.0 10.0 0.00 0.00 0.00 81 998.0
20200409123544 39 40 3.0 10.0 0.00 0.00 0.00 79 998.2
20200409123116 40 119 2.0 7.0 0.00 0.00 0.00 79 998.3
20200409122539 40 134 1.0 7.0 0.00 0.00 0.00 80 998.4
20200409122044 41 11 0.0 7.0 0.00 0.00 0.00 80 998.5
20200409121611 41 0 2.0 8.0 0.00 0.00 0.00 78 998.6
20200409121043 41 93 1.0 8.0 0.00 0.00 0.00 80 999.0
20200409120540 40 0 0.0 6.0 0.00 0.00 0.00 80 999.4
20200409120153 40 0 2.0 7.0 0.00 0.00 0.00 80 999.6
20200409115544 40 102 2.0 7.0 0.00 0.00 0.00 80 999.6
20200409115040 41 117 1.0 3.0 0.00 0.00 0.00 79 999.9
20200409114649 42 0 0.0 7.0 0.00 0.00 0.00 80 1000.0
20200409114037 42 119 0.0 7.0 0.00 0.00 0.00 80 1000.0
20200409113540 42 226 2.0 8.0 0.00 0.00 0.00 83 1000.0
20200409113045 41 213 3.0 8.0 0.00 0.00 0.00 84 1000.1
20200409112540 40 221 0.0 4.0 0.00 0.00 0.00 83 1000.3
20200409112038 39 0 0.0 4.0 0.00 0.00 0.00 85 1000.3
20200409111604 39 0 0.0 0.0 0.00 0.00 0.00 80 1000.6
20200409111053 39 0 0.0 2.0 0.00 0.00 0.00 79 1000.8
20200409110545 39 0 0.0 2.0 0.00 0.00 0.00 82 1000.8
20200409110123 39 138 0.0 2.0 0.00 0.00 0.00 81 1000.9
20200409105539 40 0 0.0 3.0 0.00 0.00 0.00 81 1001.1
20200409105050 39 229 0.0 3.0 0.00 0.00 0.00 84 1001.2
20200409104635 38 0 0.0 2.0 0.00 0.00 0.00 84 1001.2
20200409104038 38 120 0.0 0.0 0.00 0.00 0.00 83 1001.3
20200409103538 38 0 0.0 0.0 0.00 0.00 0.00 84 1001.3
20200409103106 39 0 0.0 2.0 0.00 0.00 0.00 84 1001.2
20200409102539 39 0 0.0 2.0 0.00 0.00 0.00 86 1001.2
20200409102052 39 0 0.0 2.0 0.00 0.00 0.00 87 1001.3
20200409101711 38 0 0.0 0.0 0.00 0.00 0.00 88 1001.3
20200409101044 38 0 0.0 0.0 0.00 0.00 0.00 88 1001.3
20200409100547 38 0 0.0 0.0 0.00 0.00 0.00 86 1001.4
20200409100109 38 0 0.0 0.0 0.00 0.00 0.00 88 1001.3
20200409095548 38 0 0.0 0.0 0.00 0.00 0.00 85 1001.2
20200409095039 38 0 0.0 0.0 0.00 0.00 0.00 85 1001.2
20200409094611 38 0 0.0 0.0 0.00 0.00 0.00 87 1000.9
20200409094039 38 0 0.0 0.0 0.00 0.00 0.00 85 1001.2
20200409093540 38 0 0.0 0.0 0.00 0.00 0.00 84 1001.3
20200409093054 39 0 0.0 0.0 0.00 0.00 0.00 83 1001.3
20200409092537 39 0 0.0 0.0 0.00 0.00 0.00 84 1001.5
20200409092043 39 0 0.0 0.0 0.00 0.00 0.00 84 1001.6